This demonstration page uses our WeatherBlox Daily Observations layout. Learn more.

Left ArrowRight Arrow

Hourly Observations for March 2, 2021

Temp ( °F °C ) Dew Point ( °F °C ) Humidity (%) Winds ( mph kmh ) Pressure ( in mb ) Visibility ( mi km ) Precip ( " mm )
12:15 am 00:15 Clear 33 0.6 24 -4.6 68 68 S 9 15 30.30 1026 10 16 N/A
12:35 am 00:35 Clear 33 0.3 24 -4.6 70 70 S 8 13 30.30 1026 10 16 N/A
12:55 am 00:55 Clear 32 undefined 24 -4.6 71 71 S 7 11 30.31 1026 10 16 N/A
1:15 am 01:15 Clear 32 undefined 24 -4.7 71 71 S 6 9 30.30 1026 10 16 N/A
1:35 am 01:35 Clear 32 undefined 23 -5.1 69 69 S 7 11 30.30 1026 10 16 N/A
1:55 am 01:55 Clear 31 -0.6 23 -5.1 72 72 S 6 9 30.29 1026 10 16 N/A
2:15 am 02:15 Clear 31 -0.4 22 -5.3 70 70 S 7 11 30.29 1026 10 16 N/A
2:35 am 02:35 Clear 32 undefined 22 -5.8 65 65 SSW 8 13 30.28 1025 10 16 N/A
2:55 am 02:55 Clear 31 -0.5 22 -5.8 68 68 SSW 7 11 30.27 1025 10 16 N/A
3:15 am 03:15 Clear 31 -0.3 21 -6.1 65 65 SSW 9 15 30.26 1025 10 16 N/A
3:35 am 03:35 Clear 31 -0.5 21 -6.3 65 65 SSW 9 15 30.25 1024 10 16 N/A
3:55 am 03:55 Clear 31 -0.8 20 -6.5 66 66 SSW 8 13 30.24 1024 10 16 N/A
4:15 am 04:15 Clear 31 -0.3 19 -7 61 61 SSW 10 17 30.23 1024 10 16 N/A
4:35 am 04:35 Clear 31 -0.5 19 -7 62 62 SSW 7 11 30.23 1024 10 16 N/A
4:55 am 04:55 Clear 31 -0.6 19 -7 62 62 SW 10 17 30.22 1023 10 16 N/A
5:15 am 05:15 Clear 31 -0.8 19 -7 63 63 SW 12 19 30.21 1023 10 16 N/A
5:35 am 05:35 Clear 30 -1 19 -7.1 64 64 SSW 8 13 30.21 1023 10 16 N/A
5:55 am 05:55 Clear 31 -0.8 19 -7.2 62 62 SSW 8 13 30.21 1023 10 16 N/A
6:15 am 06:15 Clear 30 -1.1 19 -7 65 65 SSW 8 13 30.21 1023 10 16 N/A
6:35 am 06:35 Clear 29 -1.4 19 -7.2 65 65 SSW 7 11 30.20 1023 10 16 N/A
6:55 am 06:55 Clear 29 -1.5 19 -7.3 65 65 SSW 8 13 30.19 1022 10 16 N/A
7:15 am 07:15 Sunny 29 -1.5 19 -7.1 66 66 SSW 9 15 30.19 1022 10 16 N/A
7:35 am 07:35 Sunny 30 -1.2 20 -6.9 66 66 SW 8 13 30.19 1022 10 16 N/A
7:55 am 07:55 Sunny 32 undefined 20 -6.6 62 62 SW 9 15 30.18 1022 10 16 N/A
8:15 am 08:15 Sunny 34 1.2 20 -6.8 56 56 SW 12 19 30.16 1021 10 16 N/A
8:35 am 08:35 Sunny 36 2 20 -6.6 53 53 SW 8 13 30.16 1021 10 16 N/A
8:55 am 08:55 Sunny 37 2.6 21 -6.2 53 53 SW 12 19 30.14 1021 10 16 N/A
9:15 am 09:15 Sunny 38 3.6 22 -5.6 51 51 SW 12 19 30.13 1020 10 16 N/A
9:35 am 09:35 Sunny 40 4.6 21 -5.9 47 47 SW 13 20 30.12 1020 10 16 N/A
9:55 am 09:55 Sunny 42 5.5 20 -6.4 42 42 SW 12 19 30.10 1019 10 16 N/A
10:15 am 10:15 Sunny 44 6.9 22 -5.6 41 41 SW 12 19 30.08 1019 10 16 N/A
10:35 am 10:35 Sunny 46 7.7 21 -5.9 38 38 SW 14 22 30.06 1018 10 16 N/A
10:55 am 10:55 Sunny 48 9.1 22 -5.5 35 35 SSW 14 22 30.03 1017 10 16 N/A
11:15 am 11:15 Sunny 51 10.7 22 -5.3 32 32 SW 16 26 30.00 1016 10 16 N/A
11:35 am 11:35 Sunny 54 12.3 23 -5.2 29 29 SW 14 22 29.98 1015 10 16 N/A
11:55 am 11:55 Sunny 56 13.5 22 -5.5 26 26 SW 18 30 29.96 1015 10 16 N/A
12:15 pm 12:15 Sunny 58 14.7 22 -5.7 24 24 SW 15 24 29.94 1014 10 16 N/A
12:35 pm 12:35 Sunny 60 15.7 20 -6.5 21 21 SW 17 28 29.92 1013 10 16 N/A
12:55 pm 12:55 Sunny 62 16.7 19 -7.1 19 19 SW 15 24 29.91 1013 10 16 N/A
1:15 pm 13:15 Sunny 63 17.4 18 -7.6 17 17 SW 15 24 29.89 1012 10 16 N/A
1:35 pm 13:35 Sunny 65 18.1 18 -7.6 17 17 SW 14 22 29.86 1011 10 16 N/A
1:55 pm 13:55 Sunny 65 18.5 19 -7.5 16 16 SW 13 20 29.86 1011 10 16 N/A
2:15 pm 14:15 Sunny 66 18.8 19 -7.2 16 16 WSW 14 22 29.84 1010 10 16 N/A
2:35 pm 14:35 Sunny 66 19 18 -7.6 16 16 WSW 12 19 29.83 1010 10 16 N/A
2:55 pm 14:55 Sunny 67 19.3 19 -7.5 16 16 WSW 13 20 29.82 1010 10 16 N/A
3:15 pm 15:15 Sunny 68 20 19 -7.4 15 15 WSW 12 19 29.82 1010 10 16 N/A
3:35 pm 15:35 Sunny 68 19.9 18 -7.6 15 15 W 12 19 29.82 1010 10 16 N/A
3:55 pm 15:55 Sunny 68 20 18 -7.7 15 15 W 9 15 29.82 1010 10 16 N/A
4:15 pm 16:15 Sunny 68 20.1 19 -7.2 15 15 WSW 9 15 29.81 1009 10 16 N/A
4:35 pm 16:35 Sunny 68 20 18 -7.9 14 14 WSW 10 17 29.81 1009 10 16 N/A
4:55 pm 16:55 Sunny 67 19.7 18 -8 15 15 W 8 13 29.81 1009 10 16 N/A
5:15 pm 17:15 Sunny 67 19.3 19 -7.3 16 16 W 7 11 29.80 1009 10 16 N/A
5:35 pm 17:35 Sunny 65 18.5 21 -6.3 18 18 W 6 9 29.82 1010 10 16 N/A
5:55 pm 17:55 Sunny 63 17.2 23 -5.2 21 21 W 3 6 29.82 1010 10 16 N/A
6:15 pm 18:15 Sunny 61 16.2 22 -5.7 22 22 N N/A 29.84 1010 10 16 N/A
6:35 pm 18:35 Clear 55 12.7 24 -4.2 31 31 NNW 5 7 29.87 1011 10 16 N/A
6:55 pm 18:55 Clear 56 13.6 27 -2.6 33 33 N 5 7 29.87 1012 10 16 N/A
7:15 pm 19:15 Clear 53 11.7 29 -1.7 40 40 N 5 7 29.89 1012 10 16 N/A
7:35 pm 19:35 Clear 49 9.3 29 -1.6 47 47 N 3 6 29.91 1013 10 16 N/A
7:55 pm 19:55 Clear 47 8.5 29 -1.8 49 49 N N/A 29.93 1013 10 16 N/A
8:15 pm 20:15 Clear 46 7.6 28 -2 51 51 N N/A 29.94 1014 10 16 N/A
8:35 pm 20:35 Clear 43 6.2 28 -2.4 54 54 N N/A 29.97 1015 10 16 N/A
8:55 pm 20:55 Clear 39 3.7 28 -2.5 64 64 N N/A 29.99 1016 10 16 N/A
9:15 pm 21:15 Clear 43 6.3 27 -2.9 52 52 N 5 7 29.97 1015 10 16 N/A
9:35 pm 21:35 Clear 42 5.8 27 -3 54 54 N 5 7 29.97 1015 10 16 N/A
9:55 pm 21:55 Clear 41 5.1 27 -2.9 57 57 N 5 7 29.99 1015 10 16 N/A
10:15 pm 22:15 Clear 39 3.8 27 -2.9 62 62 N 5 7 30.00 1016 10 16 N/A
10:35 pm 22:35 Clear 39 3.7 27 -2.9 62 62 N N/A 29.99 1016 10 16 N/A
10:55 pm 22:55 Clear 38 3.1 27 -2.8 66 66 N N/A 30.00 1016 10 16 N/A
11:15 pm 23:15 Clear 38 3.3 27 -3 64 64 N N/A 29.99 1016 10 16 N/A
11:35 pm 23:35 Clear 37 2.7 27 -3 66 66 NW 5 7 30.00 1016 10 16 N/A
11:55 pm 23:55 Clear 38 3.1 26 -3.1 64 64 N N/A 30.00 1016 10 16 N/A

Powered by AerisWeather